EW9776 Weather Reports


time (UTC)temp
C
wind
direction
speed
KPH
gust
KPH
rain 1hr
cm
rain 24hr
cm
rain mn
cm
humidity
%
barometer
mb
20260505181536 18 19 8.0 16.1 0.00 0.00 0.00 62 1015.8
20260505180033 18 36 6.4 17.7 0.00 0.00 0.00 63 1015.8
20260505173030 18 42 6.4 14.5 0.00 0.00 0.00 63 1015.6
20260505171536 18 29 6.4 11.3 0.00 0.00 0.00 64 1015.7
20260505170038 17 24 6.4 12.9 0.00 0.00 0.00 65 1015.6
20260505164609 17 26 4.8 11.3 0.00 0.00 0.00 67 1015.6
20260505163036 17 31 6.4 12.9 0.00 0.00 0.00 68 1015.5
20260505153111 16 35 4.8 11.3 0.00 0.00 0.00 70 1015.4
20260505151536 15 61 3.2 6.4 0.00 0.00 0.00 71 1015.4
20260505124608 13 282 1.6 16.1 0.00 0.00 0.00 75 1014.3
20260505123036 13 268 6.4 16.1 0.00 0.00 0.00 74 1014.3
20260505121535 13 243 8.0 17.7 0.00 0.00 0.00 74 1014.2
20260505120150 14 233 8.0 24.1 0.00 0.00 0.00 74 1014.2
20260505114535 14 242 8.0 17.7 0.00 0.00 0.00 75 1014.1
20260505113033 14 245 8.0 17.7 0.00 0.00 0.00 75 1014.0
20260505111611 14 264 4.8 12.9 0.00 0.00 0.00 73 1013.9
20260505101533 15 231 11.3 27.4 0.00 0.00 0.00 72 1013.6
20260505094534 15 227 12.9 22.5 0.00 0.00 0.00 71 1013.3
20260505093032 16 228 11.3 22.5 0.00 0.00 0.00 71 1013.3
20260505090035 16 227 11.3 22.5 0.00 0.00 0.00 69 1013.1
20260505084536 16 228 12.9 25.7 0.00 0.00 0.00 69 1013.0
20260505083035 16 223 12.9 27.4 0.00 0.00 0.00 68 1013.0
20260505081643 17 217 16.1 30.6 0.00 0.00 0.00 68 1012.9
20260505080030 17 213 16.1 33.8 0.00 0.00 0.00 68 1012.8
20260505073036 17 219 12.9 25.7 0.00 0.00 0.00 68 1012.7
20260505071608 17 214 14.5 30.6 0.00 0.00 0.00 67 1012.6
20260505070037 17 216 14.5 30.6 0.00 0.00 0.00 67 1012.5
20260505064534 17 219 12.9 22.5 0.00 0.00 0.00 67 1012.5
20260505063034 17 223 14.5 22.5 0.00 0.00 0.00 66 1012.5
20260505061538 17 219 14.5 27.4 0.00 0.00 0.00 65 1012.5
20260505060036 17 217 14.5 29.0 0.00 0.00 0.00 64 1012.5
20260505054536 17 213 16.1 29.0 0.00 0.00 0.00 63 1012.4
20260505053037 18 216 14.5 32.2 0.00 0.00 0.00 61 1012.4
20260505051536 18 210 14.5 20.9 0.00 0.00 0.00 59 1012.3
20260505041537 19 219 17.7 33.8 0.00 0.00 0.00 53 1011.7
20260505040110 19 224 17.7 37.0 0.00 0.00 0.00 50 1011.5
20260505034608 20 214 16.1 29.0 0.00 0.00 0.00 49 1011.2
20260505033035 20 214 16.1 29.0 0.00 0.00 0.00 48 1011.0
20260505031536 20 220 16.1 27.4 0.00 0.00 0.00 47 1010.8
20260505030034 21 219 16.1 32.2 0.00 0.00 0.00 47 1010.5
20260505024536 22 218 14.5 29.0 0.00 0.00 0.00 45 1010.4
20260505021535 22 221 14.5 25.7 0.00 0.00 0.00 44 1010.4
20260505020035 23 231 9.7 19.3 0.00 0.00 0.00 42 1010.4
20260505014609 23 242 9.7 17.7 0.00 0.00 0.00 41 1010.3
20260505013036 24 250 9.7 22.5 0.00 0.00 0.00 39 1010.2
20260505011535 25 268 9.7 20.9 0.00 0.00 0.00 37 1010.2
20260505010038 25 261 9.7 20.9 0.00 0.00 0.00 36 1010.2
20260505004535 25 263 11.3 24.1 0.00 0.00 0.00 34 1010.1
20260505003032 26 255 11.3 29.0 0.00 0.00 0.00 33 1010.0
20260505001536 26 250 9.7 24.1 0.00 0.00 0.00 33 1009.9
20260505000111 27 262 9.7 24.1 0.00 0.00 0.00 33 1009.9
20260504230036 27 317 9.7 22.5 0.00 0.00 0.00 37 1010.0
20260504224537 27 9 8.0 22.5 0.00 0.00 0.00 39 1010.2
20260504223035 26 69 4.8 19.3 0.00 0.00 0.00 40 1010.4
20260504221536 26 46 6.4 12.9 0.00 0.00 0.00 41 1010.5
20260504220036 26 24 8.0 17.7 0.00 0.00 0.00 42 1010.6
20260504214536 26 35 8.0 16.1 0.00 0.00 0.00 43 1010.8
20260504213112 25 39 6.4 12.9 0.00 0.00 0.00 43 1011.0
20260504211537 25 39 9.7 17.7 0.00 0.00 0.00 43 1011.1
20260504210037 25 40 9.7 16.1 0.00 0.00 0.00 44 1011.1
20260504204535 25 34 11.3 19.3 0.00 0.00 0.00 44 1011.2
20260504203033 25 28 11.3 20.9 0.00 0.00 0.00 42 1011.4
20260504201610 25 41 8.0 16.1 0.00 0.00 0.00 43 1011.6
20260504200033 25 34 9.7 19.3 0.00 0.00 0.00 44 1011.7
20260504194608 25 35 11.3 19.3 0.00 0.00 0.00 45 1011.7
20260504193030 24 35 9.7 17.7 0.00 0.00 0.00 45 1011.7
20260504191531 24 30 9.7 20.9 0.00 0.00 0.00 45 1011.9
20260504190032 24 44 8.0 16.1 0.00 0.00 0.00 45 1011.9
20260504184536 23 37 6.4 17.7 0.00 0.00 0.00 47 1012.1
20260504183036 22 30 6.4 14.5 0.00 0.00 0.00 49 1012.2